Regional Weather Roundup
Issued by NWS

Home | Current Version | Previous Version | Text Only | Print | Product List | Glossary On
Versions: 1 2 3 4 5 6 7 8 9 10 11 12 13 14 15 16 17 18 19 20 21 22 23 24 25 26 27 28 29 30 31 32 33 34 35 36 37 38 39 40 41 42 43 44 45 46 47 48 49 50
000
ASUS43 KLMK 251010
RWRKY
KENTUCKY REGIONAL WEATHER ROUNDUP
NATIONAL WEATHER SERVICE LOUISVILLE KY
600 AM EDT TUE JUL 25 2017

NOTE "FAIR" INDICATES FEW OR NO CLOUDS BELOW 12,000 FEET
WITH NO SIGNIFICANT WEATHER AND/OR OBSTRUCTIONS TO VISIBILITY.

KYZ001>023-026-027-061>063-070>075-251100-
WESTERN AND SOUTH CENTRAL KENTUCKY

CITY           SKY/WX    TMP DP  RH WIND       PRES   REMARKS
PADUCAH        PTCLDY    75  72  90 CALM      30.05R
HENDERSON      CLEAR     73  69  87 E8        30.07R
OWENSBORO      PTCLDY    73  68  84 E10       30.07R
HOPKINSVILLE   CLEAR     73  73 100 CALM      30.05R
BOWLING GREEN  CLEAR     74  72  93 CALM      30.06R
GLASGOW        CLEAR     72  72  99 NE5       30.07R
$$

KYZ024-025-028>034-038-045-046-053-251100-
NORTH CENTRAL KENTUCKY

CITY           SKY/WX    TMP DP  RH WIND       PRES   REMARKS
LOUISVILLE/SDF PTCLDY    70  62  76 E8        30.11R
LOUISVILLE/LOU CLEAR     70  63  78 NE7       30.12R
FORT KNOX      PTCLDY    69  64  83 NE7       30.09R
$$

KYZ035>037-039>044-047>052-055>060-089>105-251100-
NORTHEAST KENTUCKY

CITY           SKY/WX    TMP DP  RH WIND       PRES   REMARKS
LEXINGTON      CLEAR     66  60  81 NE9       30.12R
COVINGTON      PTCLDY    65  61  87 E10       30.15R
FRANKFORT      CLEAR     67  59  75 NE7       30.12R
$$

KYZ054-064>069-076>088-106>120-251100-
SOUTHEAST KENTUCKY

CITY           SKY/WX    TMP DP  RH WIND       PRES   REMARKS
JACKSON        CLEAR     65  63  93 CALM      30.13R
LONDON         MOCLDY    69  67  93 NE5       30.11R
SOMERSET       CLEAR     68  68 100 CALM      30.10S
MIDDLESBORO    CLOUDY    68  68 100 CALM      30.12R
MONTICELLO     MOSUNNY   70  70 100 N10       30.11R FOG
$$





USA.gov is the U.S. government's official web portal to all federal, state and local government web resources and services.